Wind_Speed
7 8 8 8 8 7 7 7 8 8 8 9 10 11 11 13 13 12 10 8 7 7 6 5 5 5 5 5 4 4 4 3 3 3 4 4 4 4 4 4 5 4 4 4 4 5 5 6 6 7 7 6 6 7 8 9 11 12 12 13 13 11 7 8 7 7 8 11 13 14 16 17 17 18 19 19 18 18 18 18 19 20 21 21 19 18 18 18
7 8 8 8 7 7 7 7 8 8 9 10 11 11 12 13 13 10 9 7 6 5 5 4 4 5 5 4 4 5 5 4 4 4 5 5 5 5 5 5 5 5 6 6 6 6 5 7 8 8 8 7 7 6 7 8 10 11 12 13 13 12 10 9 9 7 8 11 14 16 19 20 19 18 19 20 18 18 19 18 19 22 21 20 20 19 19 19
8 8 8 7 7 6 6 7 8 8 9 10 11 11 13 13 12 10 9 7 6 5 4 3 3 4 5 4 4 5 5 4 4 4 5 5 5 6 6 6 6 6 7 7 7 7 6 7 8 8 8 8 8 7 8 8 9 11 13 14 14 14 14 13 13 13 13 15 18 20 22 22 20 19 20 20 20 20 18 16 18 22 21 20 20 19 19 18
9 9 8 7 7 6 5 6 7 8 9 10 10 11 13 13 11 10 8 7 6 5 4 3 3 3 4 4 5 5 5 5 5 5 5 5 5 5 6 6 7 7 7 8 8 7 8 7 7 8 8 8 9 7 8 9 10 12 14 13 14 16 16 16 17 17 17 18 19 22 22 21 20 20 20 20 21 19 15 15 19 20 20 19 18 17 17 16
10 9 8 7 6 5 5 6 7 8 9 10 10 11 13 12 11 10 8 7 6 5 4 3 2 3 3 3 4 5 5 5 4 5 5 5 6 6 6 6 7 7 8 8 8 8 8 8 8 8 7 7 8 7 8 10 10 12 13 13 14 16 18 19 18 18 19 19 20 21 22 20 20 21 20 20 20 16 13 17 19 17 17 17 16 16 16 16
9 9 8 6 5 4 4 5 6 7 9 10 11 12 12 12 11 9 8 7 6 5 4 3 2 2 3 3 4 5 5 5 5 6 6 6 6 7 7 7 7 8 8 8 8 8 8 8 9 9 8 8 8 9 9 10 10 12 12 13 16 16 17 18 19 19 20 20 20 21 20 19 21 22 21 20 18 14 13 16 16 14 15 16 16 16 17 17
10 9 7 5 3 2 3 4 6 8 9 10 11 12 12 11 10 9 8 7 6 5 4 3 3 3 3 4 5 6 5 5 6 7 7 6 6 6 7 7 7 7 8 8 8 8 7 8 9 9 9 8 9 10 10 9 10 11 12 14 16 17 16 16 18 19 19 20 20 20 19 19 20 21 21 18 15 11 11 12 12 13 14 16 18 18 18 19
9 7 5 2 1 1 3 5 7 8 9 10 11 12 11 11 10 8 8 8 6 5 4 3 3 4 5 5 6 6 6 6 7 8 7 7 6 6 7 7 7 7 7 7 7 7 6 8 9 9 9 8 8 9 9 10 11 13 13 14 16 17 16 16 17 18 19 19 19 19 19 19 19 21 20 14 11 10 11 11 11 13 14 17 19 20 21 22
7 6 4 4 3 3 4 6 7 8 10 11 11 11 12 11 9 8 8 9 8 6 5 4 5 5 6 7 7 7 7 7 8 8 8 7 7 7 7 7 7 7 7 7 6 6 6 7 9 8 7 7 7 7 9 10 12 13 14 15 16 17 17 17 17 18 19 18 19 19 18 17 18 21 17 11 12 13 13 14 14 14 16 18 20 22 23 24
8 8 7 5 4 5 6 7 8 9 10 11 11 11 11 10 9 8 8 9 9 7 6 6 6 6 7 8 8 8 8 8 8 8 8 8 8 7 7 7 7 6 6 6 6 6 6 6 7 7 7 7 7 7 8 10 12 13 14 15 16 17 18 17 17 17 18 18 19 18 16 16 19 20 16 13 15 16 15 17 17 17 18 20 22 23 24 26
8 7 6 5 6 7 8 9 9 10 11 11 11 10 10 10 9 8 9 9 9 9 8 8 7 8 8 8 9 9 8 9 9 8 8 8 8 8 7 7 7 6 7 7 7 6 5 6 6 6 6 7 7 7 9 10 12 13 15 16 16 17 19 18 16 17 18 18 17 16 16 18 18 18 16 16 19 18 17 19 20 20 20 21 23 24 25 24
7 6 6 7 7 8 9 9 10 11 11 11 10 10 10 9 9 9 9 9 10 10 9 9 9 9 10 10 10 10 9 9 9 9 9 9 9 8 7 7 7 6 7 7 7 6 6 6 6 6 6 7 7 8 10 10 12 13 15 17 16 18 19 18 17 16 16 15 15 16 18 18 16 16 16 18 21 21 20 21 22 23 22 22 22 22 22 21
8 7 7 7 8 8 9 10 10 11 11 11 11 10 10 10 10 9 10 10 10 10 10 10 10 11 11 10 11 11 10 10 10 10 9 9 9 8 7 7 7 7 7 7 7 6 6 6 6 6 6 7 7 8 9 10 12 13 15 17 17 18 18 16 14 14 13 14 15 16 20 20 16 16 18 19 22 23 22 22 23 25 24 23 22 19 18 17
9 8 7 7 8 8 9 9 10 11 12 12 11 11 11 11 10 10 10 11 11 11 11 11 11 12 11 11 11 11 10 10 10 10 9 9 9 8 7 7 7 7 7 7 7 7 6 5 6 6 6 7 7 8 9 10 12 13 15 17 15 15 15 14 14 14 14 15 16 17 22 25 19 18 21 21 22 23 23 23 23 24 23 24 24 18 15 17
10 9 9 8 8 9 9 10 10 10 11 11 11 11 11 11 10 10 10 10 11 11 11 12 12 12 12 11 11 11 10 10 10 10 10 9 9 8 7 8 7 8 8 7 7 7 6 5 6 6 6 7 7 8 9 11 13 13 14 14 13 14 15 16 17 16 15 16 18 18 22 27 23 20 22 23 23 24 24 23 23 22 21 24 25 20 17 18
10 10 9 9 9 9 9 9 10 9 9 10 10 10 10 11 11 10 10 11 11 11 11 12 12 12 12 11 9 10 9 9 9 10 10 9 9 8 8 8 8 8 8 8 7 7 6 6 6 7 7 7 8 9 10 13 14 13 13 13 13 13 14 16 18 17 16 18 21 22 25 30 27 22 22 23 25 26 24 22 21 19 19 24 24 21 20 19
11 11 10 10 9 9 10 10 9 9 9 9 10 10 11 11 11 11 11 11 10 11 11 12 12 12 12 10 8 8 8 9 9 9 10 10 9 9 9 9 9 9 9 8 8 7 7 7 8 8 8 7 9 10 11 13 12 11 13 14 14 14 15 18 19 19 20 22 25 26 30 33 28 24 22 22 24 26 24 20 17 15 19 23 21 19 21 21
11 12 12 11 11 10 10 10 10 9 9 10 10 10 11 11 11 12 12 11 11 12 12 11 12 12 10 9 10 10 10 11 11 10 11 11 11 10 10 10 10 9 9 8 8 9 9 9 10 10 9 8 9 10 11 11 12 13 14 16 18 19 20 21 22 22 23 26 26 27 31 32 29 26 23 20 20 23 22 18 15 17 20 21 18 19 22 22
11 12 12 12 12 11 11 10 10 10 10 10 11 11 11 11 12 12 11 11 12 12 12 12 12 13 12 11 13 13 12 12 11 11 12 12 11 11 10 11 11 10 10 9 10 11 11 11 12 11 10 10 10 11 12 13 14 16 17 20 22 24 25 24 23 24 24 25 26 26 29 30 29 29 25 18 17 21 22 19 17 18 20 18 18 20 20 20
10 11 12 12 12 12 11 11 11 10 10 11 12 12 12 12 12 12 11 12 13 13 14 14 13 14 14 13 13 13 13 13 12 11 12 11 11 11 11 12 12 11 11 11 12 12 12 14 13 11 11 11 11 12 12 13 15 18 21 24 25 27 27 24 22 23 22 23 24 24 27 30 31 30 24 18 18 21 23 20 17 18 18 18 18 18 18 18
10 11 11 12 12 12 12 11 11 11 11 11 12 13 13 13 14 14 14 13 13 14 15 15 14 14 14 13 13 14 13 13 12 11 12 12 11 12 12 12 12 12 11 13 14 13 15 16 13 12 12 12 13 14 14 14 17 21 24 26 25 25 25 23 21 21 20 22 24 24 28 31 30 26 21 20 20 18 19 18 17 17 17 17 16 15 14 15
10 10 10 12 12 12 12 12 12 12 12 12 13 14 14 14 15 16 16 14 14 15 15 14 12 11 11 12 12 12 13 13 12 11 12 13 12 12 12 12 12 12 13 14 15 15 16 16 12 11 12 11 12 14 17 19 22 24 24 23 24 22 22 20 18 17 17 21 25 27 30 31 25 20 20 18 15 13 14 15 15 16 16 15 14 12 12 12
10 9 10 11 12 13 13 13 13 12 13 13 13 14 14 15 15 16 17 17 16 15 13 10 8 7 8 9 10 11 11 12 11 10 12 13 13 13 13 13 13 14 14 15 16 16 16 15 12 13 14 14 15 16 19 22 23 23 21 21 22 20 18 18 17 17 18 23 28 27 29 26 15 13 16 13 12 12 13 14 14 15 15 13 12 11 11 11
9 9 10 12 13 14 14 15 14 13 13 13 13 14 15 15 16 17 17 18 16 13 9 6 6 7 7 8 9 10 11 11 11 11 11 12 13 12 12 13 13 14 13 13 15 17 17 17 16 17 17 17 18 18 19 22 22 22 20 20 19 16 16 18 19 21 23 25 24 21 22 14 4 7 11 9 11 13 13 14 14 13 12 10 10 10 10 11
9 10 11 13 14 15 16 15 15 15 14 13 13 15 15 16 16 17 18 18 14 9 5 5 7 7 7 9 9 11 12 11 11 11 12 13 12 12 12 12 13 13 13 13 15 17 18 17 17 16 15 16 17 17 19 22 22 20 17 16 16 15 16 18 19 22 23 19 14 14 13 3 3 7 10 10 13 14 14 14 13 11 9 9 9 9 10 10
9 10 13 14 15 16 17 16 15 16 15 13 14 14 15 16 16 17 18 16 8 5 6 7 7 8 8 9 11 14 13 11 12 13 13 12 11 11 11 12 14 14 14 15 16 17 16 15 14 14 15 16 17 19 19 19 17 17 15 14 15 15 16 17 18 20 18 14 14 16 11 6 7 10 12 15 16 15 14 12 11 9 8 8 9 9 9 9
9 11 13 15 17 17 17 17 17 17 15 14 14 14 15 15 16 17 16 9 4 5 7 8 8 9 9 10 14 17 15 14 14 13 12 11 11 12 13 14 14 14 15 15 15 15 14 15 15 15 16 16 18 18 16 15 15 16 15 14 14 15 16 17 18 19 19 19 20 17 10 12 13 8 11 18 17 14 12 10 8 8 8 8 8 8 8 9
10 12 14 16 17 18 17 18 18 17 16 15 14 14 15 15 16 16 10 3 3 7 9 10 9 9 11 12 16 17 16 16 14 11 12 12 12 12 12 13 13 14 14 14 15 15 15 15 14 14 15 15 16 16 15 15 14 13 13 14 14 16 17 18 19 19 17 16 15 10 6 8 7 4 12 17 16 13 10 8 8 8 8 8 8 8 7 7
11 12 14 16 17 18 18 18 18 16 16 15 14 14 15 15 15 12 5 0 4 8 9 9 9 11 14 15 16 16 15 14 11 10 11 10 10 10 10 12 12 12 11 13 16 15 13 12 12 13 15 14 13 13 13 12 11 13 14 15 16 17 18 17 16 13 9 8 9 8 5 6 2 7 16 14 13 13 11 9 8 8 7 7 7 6 6 6
11 13 14 16 17 18 18 18 17 16 15 15 15 14 15 14 12 7 2 1 7 9 8 9 12 16 18 17 16 15 13 10 9 8 8 7 9 10 11 12 11 11 11 13 13 10 10 11 13 14 14 12 12 10 9 10 13 15 16 17 17 16 15 12 9 7 4 3 5 4 6 7 2 9 16 11 10 11 11 10 8 6 5 5 5 6 7 8
11 13 14 16 17 18 18 17 17 16 15 15 15 15 14 13 9 3 1 5 9 8 9 12 16 18 19 17 14 12 10 9 8 7 8 9 10 10 11 11 11 12 12 9 8 9 11 12 13 12 10 11 9 7 9 15 17 15 15 18 17 12 8 5 3 1 1 2 2 2 8 6 2 7 12 10 9 8 7 7 5 4 4 5 6 8 10 13
11 13 14 16 17 19 19 18 17 16 16 16 15 14 13 10 5 1 2 8 9 9 13 16 18 19 17 14 11 9 9 9 9 9 11 12 11 11 12 12 13 12 9 8 12 13 11 10 8 7 8 9 8 9 16 18 14 14 16 15 10 6 4 2 1 0 2 2 2 2 2 4 5 5 7 9 9 8 6 3 1 3 5 8 10 13 16 18
12 13 15 17 18 19 19 18 17 16 15 15 13 13 11 6 2 3 6 9 9 12 16 17 18 17 14 11 9 9 10 10 10 11 12 12 10 11 13 13 12 9 9 13 16 13 9 6 5 6 8 9 11 17 17 14 14 16 13 7 4 3 3 3 3 2 2 2 3 9 9 5 4 4 5 8 9 7 4 2 4 7 10 13 15 17 19 22
13 14 16 18 19 19 18 17 16 16 14 13 12 12 9 4 3 6 9 11 12 14 16 17 17 14 11 9 10 11 12 12 12 12 12 10 10 12 12 9 8 10 12 14 12 10 8 5 4 7 11 13 17 17 14 15 18 12 5 5 6 3 1 3 2 1 3 6 10 12 8 4 2 5 6 7 8 6 2 4 7 10 13 14 15 18 21 25
14 16 18 19 19 18 17 16 15 14 13 12 12 11 7 4 5 9 12 13 15 15 16 17 15 11 9 9 10 13 14 14 13 13 11 10 11 11 8 7 9 12 12 10 9 10 6 4 6 10 13 16 15 13 14 19 15 6 5 8 8 4 3 6 6 7 8 7 7 5 3 3 1 6 7 6 6 3 3 6 9 11 12 13 16 20 24 28
15 17 19 19 18 17 16 15 14 13 12 11 11 9 7 6 7 10 13 14 16 17 17 15 12 10 8 8 10 13 14 13 13 12 11 11 10 8 7 9 12 12 10 9 12 10 6 7 10 13 13 12 11 13 18 19 11 6 9 8 6 7 8 9 9 9 7 4 3 2 3 3 3 6 8 6 3 3 7 10 12 14 15 17 21 24 28 32
16 18 19 18 16 15 15 14 13 12 12 11 10 8 7 8 9 11 13 14 16 17 16 14 11 10 9 10 13 14 13 12 13 13 11 10 8 6 8 12 12 10 10 12 13 11 11 15 14 12 9 9 13 18 18 14 9 8 8 7 8 8 7 5 4 4 4 1 3 3 2 4 2 5 8 3 3 6 9 12 14 17 20 22 26 30 34 37
18 19 18 16 15 14 14 13 12 12 11 10 10 9 8 9 10 11 13 14 14 14 14 12 11 10 10 13 15 14 13 12 13 12 10 7 6 7 10 10 9 9 13 15 14 13 15 15 12 9 10 13 17 18 15 11 8 8 9 10 9 4 2 2 1 2 3 1 3 5 5 9 8 5 6 2 7 9 12 15 18 22 24 27 31 34 37 41
18 18 16 14 14 13 12 12 12 11 10 10 9 9 9 10 11 12 12 13 13 13 13 12 11 11 11 14 14 14 14 13 12 12 9 7 7 10 10 8 8 13 16 17 16 14 13 10 8 11 14 17 17 15 12 9 9 11 12 11 7 4 3 3 3 3 2 1 2 4 5 9 10 5 2 4 7 10 14 17 20 24 27 31 35 37 42 45
18 16 14 13 13 12 12 12 10 10 10 10 9 8 9 11 11 12 12 12 13 12 12 12 12 11 12 13 13 14 14 13 13 11 7 7 9 10 9 8 12 16 17 16 16 16 12 6 10 16 17 17 16 15 13 10 10 11 10 8 6 5 5 5 7 7 5 2 1 1 2 5 8 6 4 6 9 13 17 20 22 26 30 34 38 41 45 46
16 14 12 12 12 12 13 10 8 10 11 10 9 9 10 11 11 11 11 12 12 12 12 11 11 12 13 13 13 14 13 13 12 9 6 8 10 9 10 13 16 17 15 16 15 15 11 9 14 19 18 17 17 17 13 8 6 6 8 8 7 7 7 5 5 4 4 3 2 1 1 5 4 9 10 11 15 19 22 25 28 32 36 40 42 44 46 48
14 12 12 11 12 13 12 8 7 11 12 10 10 10 11 11 11 11 11 12 12 11 11 11 11 12 13 13 13 13 14 13 10 7 7 9 11 11 13 15 16 16 16 16 15 14 14 13 15 17 17 17 16 13 6 4 4 8 11 12 9 8 7 3 3 4 5 9 9 6 2 6 2 11 15 18 23 26 29 32 35 39 42 43 45 46 49 52
12 12 11 12 13 13 10 7 9 12 12 11 11 11 11 11 10 11 12 12 12 11 11 11 12 12 12 12 12 13 14 12 7 7 9 10 11 13 14 15 15 16 16 16 15 15 13 10 12 16 17 14 9 2 4 3 9 16 17 16 12 10 10 9 9 10 9 9 8 5 2 7 7 12 19 23 28 31 35 39 42 44 45 46 47 50 52 54
12 12 12 13 14 12 9 9 12 12 11 11 11 10 11 11 10 11 12 12 11 11 12 12 12 12 11 12 13 13 13 10 7 9 10 11 12 13 13 14 15 16 16 15 14 13 10 8 11 14 12 8 5 2 3 8 17 20 17 15 13 13 14 12 10 9 6 3 2 3 3 7 9 18 24 28 32 35 38 42 43 44 46 48 50 52 55 59
13 13 12 14 13 9 9 11 12 11 11 11 10 10 10 11 11 12 12 12 12 12 13 12 11 12 12 12 12 12 12 10 9 9 10 12 13 13 14 15 16 17 16 13 12 12 11 10 10 7 3 3 3 5 10 16 20 19 16 14 13 13 14 12 8 4 3 4 7 8 8 12 18 24 29 32 35 38 40 42 43 44 46 49 52 55 59 62
14 12 12 12 10 8 10 12 11 11 11 11 10 10 11 11 12 12 12 12 12 13 12 12 12 12 12 12 12 11 12 13 11 11 11 12 13 15 16 17 18 17 13 12 13 13 13 12 10 7 6 7 10 11 15 18 17 15 13 12 12 12 13 11 5 1 3 9 12 9 11 21 26 28 32 34 36 38 41 43 45 46 48 51 55 58 60 59
14 12 12 12 10 9 11 11 10 11 11 11 10 10 11 11 12 12 12 12 12 12 12 12 12 12 12 12 12 12 14 14 13 13 13 14 15 17 17 18 18 15 13 14 15 14 14 12 9 8 8 9 12 12 12 13 12 11 11 11 10 10 11 8 4 2 5 9 9 8 13 24 30 32 35 36 37 39 42 45 46 48 50 55 58 58 55 52
13 12 12 12 10 10 10 10 10 11 11 10 10 10 11 12 12 12 12 12 12 12 12 11 11 12 12 12 12 13 14 14 15 16 16 17 18 18 18 19 16 13 15 16 15 13 12 11 10 11 13 12 10 7 5 7 9 9 9 8 8 9 10 5 3 4 7 9 12 16 21 26 30 33 34 34 37 41 43 45 46 48 54 57 57 54 51 51
13 12 12 12 11 11 11 11 10 11 11 10 10 11 12 12 13 13 12 11 11 11 11 11 10 11 12 12 13 14 16 17 18 19 19 19 19 19 19 17 14 15 16 14 12 12 11 10 11 13 16 13 7 5 4 6 9 9 8 6 7 8 8 5 4 8 12 14 17 22 26 28 30 33 36 39 40 42 43 45 46 51 55 55 53 51 52 53
13 12 11 11 10 10 10 11 11 11 11 11 11 12 13 13 13 12 11 10 10 10 10 10 10 11 12 12 14 16 18 20 20 20 20 19 18 19 18 16 14 15 14 10 11 12 11 11 11 14 17 11 5 7 9 7 10 10 6 5 7 8 8 8 10 14 17 20 23 28 32 34 35 38 42 43 42 42 45 47 48 51 52 51 51 52 53 55
13 12 11 11 10 10 10 11 12 12 12 12 13 12 12 12 12 11 10 10 10 9 10 10 10 11 12 13 15 17 19 21 20 19 19 18 18 17 15 15 14 12 11 11 12 12 11 12 13 14 15 9 6 10 12 9 10 9 6 6 8 8 7 9 14 19 22 25 30 35 36 37 41 45 45 43 42 44 47 48 49 51 51 51 52 54 55 55
13 12 12 11 11 11 11 11 12 12 12 12 12 12 12 12 12 11 10 10 9 9 9 9 10 12 13 15 17 18 20 20 19 18 18 17 17 16 14 13 11 10 11 12 12 12 14 15 14 13 12 9 8 10 13 12 9 6 5 8 9 9 9 12 16 20 23 29 35 36 35 37 40 42 42 44 46 48 50 50 50 52 52 52 52 53 55 55
Wind_Direction
321 321 323 327 333 338 338 339 340 343 344 342 341 340 337 337 337 335 331 326 321 319 314 310 308 303 296 291 286 280 272 271 270 273 284 283 285 288 287 284 278 272 268 268 264 262 259 254 231 201 202 210 196 188 200 205 212 222 222 225 223 217 248 277 264 251 250 256 263 268 276 282 285 288 287 285 287 287 285 287 289 286 283 286 288 288 282 279
333 332 332 333 335 336 334 336 339 341 341 340 340 340 339 339 341 341 340 337 331 323 309 298 294 288 283 282 281 274 266 266 271 277 285 285 284 284 283 281 278 274 273 274 270 266 262 268 263 227 203 207 200 196 214 221 223 226 229 230 222 222 247 260 253 259 266 265 264 268 278 284 283 285 285 285 287 283 284 290 288 282 281 284 286 285 283 281
337 336 336 337 336 332 331 334 336 338 339 339 339 339 339 341 345 346 344 343 339 328 307 290 281 273 271 273 277 276 272 272 271 272 282 285 284 282 281 279 277 275 272 273 272 268 258 257 258 236 216 214 212 211 225 231 230 232 234 235 230 231 242 249 248 254 269 278 278 277 280 283 285 283 283 288 289 285 289 291 280 278 280 281 284 286 286 285
325 323 321 322 329 328 328 332 334 337 338 338 338 337 338 341 347 348 345 342 340 332 315 303 281 262 260 265 274 279 281 283 274 271 282 285 287 288 284 282 279 274 269 269 267 264 260 254 249 244 233 228 230 225 229 235 235 241 244 244 242 242 247 251 249 253 265 276 281 280 278 281 285 284 285 289 289 293 297 281 273 279 283 282 285 288 287 288
321 317 310 305 312 321 326 332 337 339 338 336 334 335 338 341 345 348 346 341 341 333 321 313 294 267 260 268 277 280 286 287 269 269 288 289 291 291 286 284 280 275 271 268 266 264 262 257 249 246 235 232 246 243 241 245 245 252 256 256 253 251 252 256 259 262 267 270 273 274 276 282 286 287 289 289 291 299 291 276 280 286 286 287 289 291 293 294
326 320 313 300 298 316 331 338 342 339 336 334 331 334 339 340 342 347 348 343 337 332 328 313 301 287 283 290 288 287 292 290 272 276 293 293 291 289 282 280 277 275 272 266 265 261 259 257 249 244 236 231 245 254 257 260 257 258 259 260 261 261 261 263 265 267 268 268 269 271 276 282 287 289 291 293 298 296 279 281 292 295 293 295 297 299 301 300
329 323 315 304 294 324 346 345 342 337 335 333 331 335 338 341 343 346 350 348 338 330 328 313 305 307 306 306 299 298 297 289 283 284 293 295 293 288 280 279 275 273 270 265 261 255 256 257 251 248 243 236 245 260 271 276 271 267 266 266 270 272 272 270 270 270 269 269 271 273 277 283 288 290 293 301 304 296 286 293 303 303 302 302 303 306 304 302
340 336 333 339 36 29 3 347 340 335 334 334 333 337 341 345 347 348 354 355 349 335 325 318 313 313 313 312 307 311 309 292 286 287 292 296 296 292 287 284 278 274 268 261 254 249 250 251 250 251 248 244 252 265 275 280 278 277 278 277 278 280 277 274 272 272 272 273 274 276 279 286 289 289 298 307 300 298 302 302 308 310 308 306 306 307 305 304
17 29 46 73 75 38 1 343 337 334 335 336 337 340 344 350 352 352 358 0 358 348 331 319 311 308 309 308 311 319 313 298 292 292 295 297 297 294 293 288 281 275 266 258 249 242 241 244 253 262 265 264 265 268 274 277 278 282 284 283 282 280 277 274 272 274 275 276 276 277 281 286 288 291 303 313 297 300 305 305 312 312 311 309 307 306 305 302
47 59 67 69 46 9 350 341 337 335 335 337 340 343 346 350 353 354 358 358 355 351 339 325 314 306 302 304 311 317 309 299 297 298 299 299 298 295 294 288 283 275 264 257 249 247 245 247 261 275 279 282 283 276 276 277 281 286 286 285 284 282 279 276 276 276 276 277 277 278 279 282 286 292 305 310 300 304 307 308 313 311 309 308 306 304 301 299
48 52 48 31 6 351 345 341 337 337 338 340 342 344 346 349 352 353 353 352 348 345 339 329 322 311 306 306 308 310 304 299 297 297 298 299 296 294 292 286 280 273 266 258 250 252 252 251 264 274 274 283 289 284 283 282 284 288 289 289 288 285 282 282 283 281 278 278 277 277 279 282 288 295 307 309 305 310 312 311 313 311 307 304 303 301 298 296
22 16 9 356 348 344 342 340 339 341 344 346 347 346 348 350 349 346 343 342 338 336 332 326 321 313 311 310 306 304 302 300 298 296 297 296 292 288 286 283 278 271 265 257 250 250 252 257 269 271 269 280 287 284 285 287 289 292 291 291 290 285 283 284 283 280 279 279 280 283 283 286 292 299 311 311 309 312 313 314 314 310 306 303 302 299 295 295
5 357 352 346 343 342 341 344 346 348 351 354 354 351 350 349 346 341 335 333 329 328 328 322 317 313 312 311 306 304 304 304 301 297 296 294 289 285 283 281 275 267 259 256 254 252 251 256 265 268 271 281 286 284 286 289 291 292 291 292 292 287 284 283 280 279 282 282 285 287 285 291 300 305 313 313 310 312 313 315 312 308 309 309 306 298 291 294
13 9 2 356 353 352 353 355 355 355 356 356 355 352 350 348 344 338 332 328 325 325 324 319 316 312 309 309 305 305 307 306 300 296 293 292 288 283 281 276 269 265 260 257 256 255 257 257 262 268 273 284 290 290 292 293 291 291 291 292 290 284 284 284 284 286 287 288 290 287 285 294 306 311 313 311 310 312 312 312 308 309 312 311 308 300 293 301
16 17 15 12 10 8 7 4 1 360 358 356 354 351 348 346 344 338 333 328 325 324 321 317 314 310 307 306 304 306 308 302 298 296 293 291 285 279 275 270 268 265 264 265 261 260 264 265 269 271 276 286 290 290 290 288 288 287 285 287 285 282 286 289 290 291 290 289 289 285 284 293 306 314 313 312 313 313 310 307 305 310 311 307 305 301 303 309
21 21 18 16 15 14 12 8 4 1 358 357 354 351 349 347 345 342 336 331 327 325 323 317 313 310 307 306 304 303 304 298 295 295 294 288 280 274 269 267 267 265 267 268 266 266 265 267 269 268 277 282 279 281 282 282 285 283 278 280 283 283 285 289 292 293 291 289 288 287 285 291 304 314 313 315 317 313 309 305 307 312 304 299 301 302 306 308
25 24 22 19 15 13 12 8 4 359 358 356 352 354 351 347 347 344 337 332 328 326 324 318 313 310 307 308 305 298 299 298 294 292 291 288 280 272 267 267 267 266 269 269 269 267 263 269 269 265 276 280 277 277 275 279 289 289 281 280 282 281 281 285 289 291 291 289 289 289 287 292 305 312 314 319 318 312 310 309 307 298 287 291 297 300 303 302
25 24 24 20 15 12 8 4 1 355 352 350 348 349 347 346 347 344 339 334 330 324 321 317 313 310 307 308 302 295 296 295 293 290 286 284 282 276 269 266 266 267 271 273 272 266 262 268 268 270 285 291 285 278 273 282 296 294 288 288 288 285 283 283 285 287 289 288 288 289 290 298 307 311 317 322 311 303 303 301 287 273 276 288 296 298 298 298
24 23 21 17 13 9 3 359 356 350 345 344 342 340 340 340 338 337 336 332 327 322 318 314 311 306 303 303 299 296 297 294 293 290 284 283 282 276 271 268 267 270 272 270 268 265 266 267 269 281 295 294 287 281 278 284 291 292 291 290 290 289 287 287 289 289 288 287 288 290 293 300 306 312 321 318 298 287 284 279 271 269 277 286 291 292 293 296
20 19 16 13 9 4 360 356 352 346 340 337 335 334 334 331 329 330 332 328 325 321 317 312 307 303 300 300 297 295 297 295 294 293 286 283 279 276 274 272 272 274 272 269 267 268 270 271 280 298 302 296 290 284 281 281 284 289 290 289 289 288 289 293 294 291 291 289 290 295 297 300 306 315 319 304 285 278 276 273 269 269 275 283 286 289 292 298
13 13 13 9 5 1 356 351 346 341 337 334 333 333 331 331 332 332 329 327 323 319 314 308 306 304 301 299 295 293 294 293 295 296 289 284 282 280 278 277 277 276 271 270 273 276 278 281 294 305 298 295 288 278 274 273 277 284 287 287 287 287 290 295 293 290 292 288 289 299 298 299 309 316 308 291 283 277 273 271 270 271 277 284 288 292 296 300
11 11 9 6 2 359 355 350 344 339 336 335 334 332 331 332 332 329 326 327 323 318 315 309 308 308 304 303 301 298 296 294 296 295 288 286 285 282 280 279 277 276 275 277 283 285 285 291 305 307 297 293 284 274 270 271 277 284 287 286 286 289 294 296 293 290 288 287 294 301 299 304 316 309 293 289 285 273 265 262 265 272 281 288 292 295 295 296
11 9 5 1 358 356 354 350 346 341 336 334 333 332 331 331 330 327 326 326 324 322 318 315 321 323 317 316 315 312 308 305 302 294 287 287 287 284 282 281 281 282 285 287 291 291 291 298 304 302 296 290 284 280 277 278 282 286 287 286 288 293 295 292 293 293 289 293 300 302 302 311 320 292 282 284 276 263 256 257 263 273 282 288 291 293 294 293
8 3 359 357 354 353 352 349 345 340 335 331 330 330 331 331 329 328 328 326 326 326 322 324 337 339 335 332 328 327 324 317 310 303 297 294 292 289 287 287 288 290 293 292 291 291 294 300 301 299 294 288 286 285 285 286 287 289 290 291 294 297 295 292 295 295 295 298 299 301 310 321 350 294 282 263 261 258 251 257 265 272 277 281 285 290 293 291
4 1 358 356 354 352 350 347 342 338 334 328 326 327 331 332 329 330 330 327 329 337 337 338 342 343 343 342 340 339 335 327 320 315 308 302 297 294 296 296 297 301 302 298 295 294 297 302 303 301 295 291 290 290 291 293 294 296 299 301 302 302 299 295 295 296 299 299 295 308 324 360 100 321 290 257 256 253 250 257 263 266 266 270 278 281 281 280
1 2 358 356 355 351 348 345 341 337 333 327 325 327 331 333 332 332 330 329 336 2 355 344 343 338 334 339 343 341 338 333 327 320 311 306 301 300 302 303 304 307 305 302 300 299 302 305 303 299 296 295 295 297 299 299 300 303 307 309 307 304 300 297 297 295 295 293 289 299 299 250 278 305 275 258 255 247 244 245 249 259 262 263 269 269 268 269
355 356 352 351 351 349 345 344 342 338 334 330 327 328 331 334 334 333 333 337 355 1 352 344 342 334 326 328 333 335 333 328 325 320 316 314 306 303 305 305 306 306 305 301 298 299 304 304 302 299 299 300 302 304 305 304 305 307 311 315 312 308 304 300 297 291 290 292 294 295 270 257 287 297 247 248 247 241 237 231 237 252 258 261 263 265 268 272
347 348 344 343 345 345 343 343 342 339 335 331 329 330 331 333 334 332 335 3 356 342 343 340 340 337 330 325 326 328 327 324 322 315 313 312 306 304 304 304 305 305 303 297 295 302 305 302 302 303 304 307 308 308 307 308 311 313 316 317 315 311 305 299 293 289 294 297 300 306 246 239 282 239 215 230 237 239 234 226 234 240 248 256 257 263 269 277
341 342 339 338 339 341 342 342 341 339 335 331 329 329 330 332 332 331 335 60 331 334 337 337 339 337 331 326 323 323 323 324 323 318 316 315 313 314 311 307 307 304 300 296 297 304 305 303 308 309 308 310 312 313 312 316 321 318 316 315 315 312 304 296 288 288 298 284 293 314 237 212 272 208 202 215 235 246 242 234 237 241 250 257 258 266 271 281
335 336 335 336 337 339 341 340 338 337 334 331 329 328 329 330 330 335 13 322 325 331 332 334 336 332 329 327 324 325 328 332 335 336 334 330 323 321 316 313 310 306 304 301 301 305 304 305 308 306 305 311 319 323 324 331 328 319 316 317 319 316 305 293 281 291 314 263 300 332 198 203 266 197 199 217 243 251 252 245 242 250 262 273 279 283 286 291
330 333 335 335 336 338 339 337 336 334 332 329 327 326 328 328 327 348 81 323 325 328 327 328 331 331 330 332 334 336 342 347 348 347 339 332 327 324 323 321 318 317 316 311 307 309 306 304 305 305 308 317 323 332 334 331 327 322 320 322 323 323 314 296 278 299 317 272 332 85 166 197 263 194 205 232 240 236 240 237 241 261 288 306 307 308 309 307
329 333 334 335 336 337 335 334 334 333 331 329 327 327 329 330 331 348 317 322 324 323 325 328 330 333 333 338 346 352 358 356 348 342 335 333 333 331 332 332 331 331 330 327 322 318 313 309 308 312 321 325 323 326 328 327 329 326 321 326 332 338 349 323 278 254 246 210 99 92 190 240 254 230 230 235 226 213 207 210 258 312 331 332 328 328 325 319
333 335 336 336 337 335 333 333 333 332 332 331 331 333 334 336 342 318 314 320 320 321 325 327 331 334 334 340 352 356 358 353 345 342 339 337 336 334 337 339 341 346 335 328 329 329 331 328 323 328 333 331 324 326 330 332 334 327 324 347 9 8 8 302 280 320 281 222 323 316 304 276 225 207 218 214 205 201 207 276 332 342 346 348 346 341 331 325
337 337 337 336 334 332 331 332 332 332 334 335 336 337 336 332 319 313 315 318 320 323 325 326 331 334 331 337 347 350 352 348 344 345 342 340 335 334 340 343 347 346 334 332 337 334 328 323 325 333 330 323 323 329 338 337 334 331 341 357 332 312 219 241 252 288 265 280 301 301 293 284 215 179 194 201 196 201 253 307 327 348 357 357 350 339 329 326
338 337 336 333 331 331 331 332 333 334 336 338 338 338 337 326 309 312 317 320 322 324 326 327 331 332 330 337 344 347 347 342 340 344 344 340 335 335 342 341 339 341 338 341 343 330 309 283 305 320 320 317 322 332 337 334 333 330 329 326 318 303 237 254 282 283 283 302 303 278 248 298 240 175 185 193 195 218 328 319 319 336 345 339 332 328 324 324
338 337 333 331 330 332 333 333 335 335 336 338 339 339 336 328 319 317 320 322 322 324 328 333 334 333 335 338 339 342 343 339 339 345 344 336 332 336 339 334 336 342 347 349 345 335 302 289 310 320 319 318 323 329 331 331 328 317 322 322 317 305 277 274 291 292 302 326 289 242 162 136 132 165 177 179 203 306 329 317 316 321 321 320 321 322 320 320
338 335 331 329 331 333 334 335 336 336 337 339 340 339 336 330 325 322 321 321 324 327 332 337 339 337 336 333 334 340 344 341 340 343 343 332 326 333 332 332 337 343 346 343 340 332 311 309 320 328 326 326 327 328 330 332 331 330 332 331 325 311 280 271 292 312 346 347 260 300 60 83 79 174 171 170 300 315 316 310 314 313 311 313 315 315 315 315
334 332 329 330 332 333 334 337 338 339 340 343 342 341 338 334 329 326 325 327 329 333 335 339 340 335 332 330 334 341 344 343 343 344 346 336 325 331 332 333 340 340 337 334 331 328 319 314 322 331 328 328 329 330 333 337 338 338 336 332 332 325 277 291 304 315 346 288 268 321 15 39 43 128 151 305 296 299 309 308 310 309 309 312 312 312 313 313
332 332 330 332 334 335 338 341 342 346 348 346 344 343 340 336 332 331 332 333 335 336 338 340 337 332 333 333 335 341 343 346 349 347 345 340 332 333 335 337 336 331 330 329 326 328 326 311 304 316 322 327 331 333 334 333 327 328 331 332 335 326 299 300 286 271 277 252 275 325 16 49 52 76 106 323 305 311 317 311 309 310 310 312 312 312 313 313
332 333 333 335 338 340 343 345 349 354 353 348 347 346 341 337 335 335 335 336 338 340 340 339 337 334 336 337 337 340 345 349 349 346 345 344 341 339 335 329 326 325 326 327 326 327 329 301 287 308 322 330 332 331 328 320 320 330 338 340 340 332 309 294 288 274 258 242 196 335 12 79 59 26 350 337 331 322 316 311 309 311 311 312 312 313 312 313
334 337 338 341 344 346 347 349 356 353 350 351 350 347 342 339 338 337 338 339 340 340 340 339 339 337 337 339 340 342 349 348 345 348 350 343 342 337 326 321 322 324 326 328 327 327 328 304 292 306 325 334 330 327 327 325 333 3 12 0 345 324 310 297 289 262 243 266 246 235 207 131 67 352 335 333 330 321 316 315 313 313 312 313 314 314 315 316
337 341 344 347 348 348 348 353 356 349 348 352 349 345 344 341 340 341 340 341 342 343 343 341 342 341 339 343 345 346 348 346 344 349 345 337 335 329 323 322 324 326 328 329 328 326 326 312 299 307 324 332 328 327 346 53 25 354 345 341 331 311 300 281 279 275 275 289 284 269 223 161 200 315 321 321 319 317 316 315 313 313 314 316 317 316 315 314
342 345 346 347 346 346 349 353 350 348 351 351 348 348 347 345 345 345 344 345 346 348 348 344 345 346 346 348 349 346 345 347 346 343 337 334 333 330 327 328 328 329 329 328 326 327 328 316 306 315 324 334 342 353 139 90 346 333 330 329 322 308 300 294 288 286 287 290 283 277 206 164 209 289 307 310 309 309 310 310 312 314 315 316 315 313 312 312
342 343 344 342 342 345 351 351 348 351 354 353 350 350 349 348 349 348 348 349 350 351 350 348 350 352 352 351 348 344 347 350 344 337 337 338 337 335 332 331 329 328 328 326 324 326 328 316 314 322 331 351 26 127 215 305 323 328 327 319 309 300 302 306 298 286 278 257 255 269 218 194 238 278 289 293 296 299 303 308 311 313 313 313 312 312 314 316
339 341 341 341 343 348 353 350 351 355 356 354 352 352 352 352 351 351 353 353 352 352 352 354 356 354 353 353 349 348 353 356 351 348 347 345 342 338 333 332 330 329 328 327 327 328 325 319 320 322 317 315 307 282 295 308 314 319 316 306 303 305 309 316 312 284 254 261 278 281 272 268 271 273 278 286 292 299 306 310 311 312 313 313 314 316 318 319
339 341 343 346 351 356 353 352 354 356 355 353 354 356 357 357 354 354 356 355 354 356 357 358 357 355 356 358 360 2 3 3 1 358 353 347 343 337 333 332 330 329 330 330 331 329 323 322 322 308 277 277 289 299 305 305 306 308 304 301 311 322 325 331 347 10 299 299 292 282 291 298 297 295 298 303 307 310 312 312 312 314 316 317 317 318 318 318
342 346 350 355 360 357 353 355 355 354 356 357 358 359 360 360 358 358 358 358 358 360 1 1 360 1 6 9 11 13 9 5 360 354 348 341 337 333 331 331 330 329 332 332 331 329 325 326 328 321 314 311 312 315 309 297 297 298 294 300 314 324 327 342 31 42 320 312 302 294 307 311 311 313 314 315 314 312 312 313 316 320 321 318 317 317 317 318
349 351 353 355 358 356 354 358 357 357 1 1 360 1 0 1 3 1 1 2 3 3 5 7 8 10 14 15 15 12 5 359 352 347 342 336 333 332 330 332 332 331 333 332 331 334 332 333 336 333 334 333 329 330 311 287 294 292 284 291 304 310 316 333 17 339 319 318 312 311 317 318 316 315 315 313 312 312 314 316 319 321 318 315 315 317 319 321
350 353 354 355 358 359 358 360 2 3 3 2 3 4 2 4 4 3 5 6 5 7 11 14 15 15 16 15 9 2 356 352 346 342 339 336 334 334 333 335 334 331 334 335 337 342 341 339 340 334 335 343 357 7 337 293 291 286 272 279 291 293 299 302 303 307 311 315 315 317 323 322 316 314 315 314 314 314 314 315 316 316 314 314 317 320 322 325
353 357 360 359 1 2 358 0 6 7 4 3 6 6 4 6 6 4 6 8 9 13 16 19 20 16 13 7 360 354 350 347 343 339 339 338 337 337 335 335 333 333 339 347 346 347 347 345 341 332 335 354 24 352 336 309 287 279 265 274 281 276 279 291 305 314 318 323 325 325 324 320 316 316 317 316 315 313 312 313 315 316 317 320 323 325 326 328
359 2 5 4 5 4 2 4 8 8 6 5 6 6 4 5 6 5 7 8 10 14 16 20 19 10 4 357 352 350 347 343 340 339 338 338 338 337 333 333 336 340 350 353 350 351 351 347 343 334 336 358 15 341 335 316 286 274 272 294 300 302 309 319 326 328 329 331 330 327 325 322 319 319 317 315 313 312 313 318 322 323 324 327 329 328 328 326
4 5 7 6 6 6 6 9 10 7 5 4 5 5 4 3 4 4 6 5 6 12 16 17 11 2 357 352 350 349 345 340 339 338 337 336 336 334 332 336 343 349 353 354 354 355 352 347 347 340 335 350 5 343 327 309 284 269 296 310 310 313 316 319 324 325 326 331 330 327 324 319 314 313 313 314 316 317 321 327 331 329 328 329 328 326 325 325
Height
3159 3158 3158 3158 3157 3157 3156 3156 3156 3155 3155 3155 3154 3154 3153 3152 3151 3150 3149 3148 3148 3147 3147 3146 3146 3146 3145 3145 3145 3145 3145 3145 3145 3145 3144 3144 3144 3144 3144 3144 3144 3144 3143 3143 3143 3143 3143 3143 3143 3143 3143 3143 3143 3144 3144 3145 3145 3145 3146 3146 3146 3146 3146 3145 3146 3145 3144 3144 3144 3144 3144 3144 3144 3143 3142 3141 3140 3140 3139 3138 3137 3135 3134 3134 3135 3135 3135 3134
3158 3158 3157 3157 3157 3156 3156 3156 3155 3155 3155 3154 3154 3153 3152 3151 3150 3149 3148 3148 3147 3147 3146 3146 3146 3145 3145 3145 3145 3145 3145 3145 3145 3145 3145 3144 3144 3144 3143 3143 3143 3143 3143 3143 3143 3143 3143 3143 3143 3142 3142 3142 3143 3143 3143 3144 3144 3144 3144 3144 3145 3145 3144 3144 3145 3144 3144 3143 3143 3143 3143 3142 3142 3142 3140 3139 3139 3138 3137 3137 3135 3133 3132 3133 3133 3133 3132 3132
3158 3157 3157 3157 3156 3156 3156 3155 3155 3155 3154 3154 3153 3152 3152 3150 3149 3148 3148 3147 3146 3146 3146 3146 3145 3145 3145 3145 3145 3145 3145 3145 3145 3145 3145 3144 3144 3143 3143 3143 3143 3143 3142 3142 3142 3142 3142 3142 3142 3142 3141 3141 3142 3142 3142 3143 3143 3143 3143 3143 3143 3143 3143 3143 3144 3144 3143 3143 3142 3142 3142 3141 3140 3140 3139 3138 3137 3136 3136 3135 3133 3131 3131 3131 3130 3130 3130 3130
3157 3156 3156 3156 3156 3156 3155 3155 3155 3154 3154 3153 3153 3152 3151 3150 3149 3148 3147 3146 3146 3146 3145 3145 3145 3145 3145 3145 3145 3145 3145 3145 3145 3145 3144 3144 3143 3143 3143 3143 3142 3142 3142 3142 3142 3142 3141 3141 3142 3141 3141 3140 3141 3141 3141 3142 3142 3142 3141 3142 3142 3142 3142 3142 3142 3143 3143 3142 3141 3140 3140 3139 3139 3138 3137 3136 3135 3134 3134 3133 3131 3130 3129 3129 3128 3128 3128 3127
3156 3155 3155 3155 3155 3155 3155 3155 3154 3154 3153 3153 3152 3151 3150 3149 3148 3147 3147 3146 3145 3145 3145 3144 3144 3144 3144 3144 3144 3144 3144 3144 3144 3144 3144 3143 3143 3143 3142 3142 3142 3141 3141 3141 3141 3141 3141 3141 3141 3141 3140 3140 3140 3140 3140 3141 3141 3141 3141 3141 3141 3141 3141 3141 3141 3141 3141 3141 3140 3139 3139 3138 3137 3135 3135 3134 3133 3132 3132 3130 3129 3129 3127 3127 3127 3126 3125 3125
3155 3154 3154 3154 3154 3154 3154 3154 3154 3153 3153 3152 3151 3150 3149 3148 3147 3147 3146 3146 3145 3145 3144 3144 3144 3144 3143 3143 3143 3143 3144 3143 3143 3143 3143 3143 3142 3142 3142 3141 3141 3141 3141 3140 3140 3140 3140 3140 3140 3140 3139 3139 3139 3139 3139 3140 3140 3139 3139 3139 3139 3139 3139 3139 3140 3140 3140 3139 3138 3138 3137 3136 3135 3133 3132 3131 3130 3130 3129 3128 3127 3126 3125 3124 3124 3124 3123 3122
3154 3153 3153 3153 3153 3154 3154 3154 3153 3153 3152 3152 3151 3150 3149 3148 3147 3146 3146 3145 3144 3144 3144 3144 3143 3143 3143 3143 3143 3143 3143 3143 3143 3142 3142 3142 3142 3141 3141 3141 3141 3140 3140 3140 3140 3139 3139 3139 3139 3138 3138 3138 3138 3138 3138 3138 3138 3138 3138 3138 3138 3138 3138 3138 3138 3138 3138 3137 3136 3136 3135 3134 3133 3131 3130 3129 3128 3128 3127 3126 3125 3123 3122 3121 3120 3120 3120 3120
3153 3152 3152 3152 3153 3153 3153 3153 3153 3152 3152 3151 3150 3149 3148 3147 3146 3146 3145 3145 3144 3144 3143 3143 3143 3143 3142 3142 3142 3142 3142 3142 3142 3141 3141 3141 3140 3140 3140 3140 3140 3140 3139 3139 3139 3138 3138 3138 3138 3137 3137 3137 3137 3137 3137 3137 3136 3136 3136 3136 3136 3136 3136 3136 3136 3136 3135 3135 3134 3133 3133 3132 3131 3129 3128 3127 3126 3126 3125 3124 3124 3122 3121 3119 3118 3117 3117 3116
3153 3152 3152 3152 3153 3153 3153 3153 3152 3152 3151 3150 3149 3148 3147 3147 3146 3145 3145 3144 3144 3143 3143 3143 3142 3142 3142 3141 3141 3141 3141 3141 3140 3140 3140 3139 3139 3139 3139 3139 3139 3138 3138 3138 3138 3137 3137 3137 3137 3136 3136 3136 3136 3136 3136 3135 3135 3135 3135 3134 3134 3134 3134 3134 3134 3134 3133 3133 3132 3131 3131 3130 3128 3127 3126 3126 3125 3124 3123 3122 3122 3121 3119 3118 3116 3115 3114 3113
3153 3153 3153 3153 3153 3153 3153 3152 3152 3151 3150 3149 3148 3148 3147 3146 3145 3145 3144 3144 3143 3143 3143 3142 3142 3141 3141 3140 3140 3140 3140 3140 3139 3139 3138 3138 3138 3138 3138 3138 3137 3137 3137 3137 3137 3136 3136 3136 3135 3135 3134 3134 3134 3134 3134 3134 3133 3133 3133 3132 3132 3132 3132 3132 3132 3132 3131 3130 3129 3129 3129 3128 3126 3125 3124 3124 3123 3122 3121 3120 3119 3119 3117 3116 3114 3113 3112 3110
3154 3154 3154 3153 3153 3153 3152 3152 3151 3150 3149 3149 3148 3147 3146 3146 3145 3144 3144 3143 3143 3142 3142 3141 3141 3141 3140 3140 3139 3139 3139 3139 3138 3138 3137 3137 3137 3137 3137 3137 3136 3136 3136 3136 3136 3135 3135 3134 3134 3133 3133 3133 3133 3132 3132 3132 3132 3131 3131 3130 3131 3130 3129 3129 3130 3129 3129 3128 3127 3127 3126 3125 3124 3123 3123 3121 3120 3120 3119 3118 3117 3116 3115 3114 3112 3110 3109 3108
3155 3154 3154 3153 3153 3152 3152 3151 3150 3150 3149 3148 3147 3147 3146 3145 3144 3144 3143 3143 3142 3142 3141 3141 3140 3140 3139 3139 3138 3138 3138 3137 3137 3136 3136 3136 3136 3136 3136 3135 3135 3135 3135 3135 3134 3134 3133 3133 3132 3132 3131 3131 3131 3131 3130 3130 3130 3129 3129 3128 3128 3128 3127 3127 3127 3127 3126 3125 3125 3124 3123 3122 3122 3121 3121 3120 3118 3117 3116 3115 3114 3112 3112 3111 3109 3108 3106 3105
3155 3154 3154 3153 3152 3152 3151 3151 3150 3149 3148 3147 3147 3146 3145 3145 3144 3144 3143 3142 3142 3141 3141 3140 3139 3139 3138 3138 3137 3137 3136 3136 3135 3135 3135 3135 3135 3135 3134 3134 3134 3134 3134 3134 3133 3133 3132 3131 3131 3131 3130 3129 3129 3129 3129 3129 3128 3128 3127 3126 3126 3125 3124 3125 3125 3124 3124 3123 3122 3122 3119 3119 3120 3119 3118 3118 3115 3114 3113 3113 3111 3108 3107 3106 3106 3105 3104 3103
3154 3154 3153 3153 3152 3151 3151 3150 3149 3149 3148 3147 3146 3146 3145 3144 3144 3143 3143 3142 3141 3141 3140 3139 3139 3138 3138 3137 3136 3136 3136 3135 3134 3134 3134 3134 3134 3133 3133 3133 3133 3133 3133 3132 3132 3131 3131 3130 3130 3129 3129 3128 3128 3128 3127 3127 3126 3126 3125 3124 3124 3123 3122 3122 3122 3121 3121 3120 3120 3119 3115 3114 3117 3117 3116 3115 3113 3112 3110 3110 3108 3105 3104 3102 3101 3102 3101 3101
3155 3154 3153 3152 3152 3151 3150 3150 3149 3148 3148 3147 3146 3145 3145 3144 3143 3143 3142 3141 3141 3140 3140 3139 3138 3137 3137 3136 3136 3135 3135 3134 3134 3133 3133 3133 3133 3132 3132 3132 3132 3132 3131 3131 3130 3130 3129 3129 3128 3128 3127 3127 3126 3126 3125 3125 3124 3124 3123 3122 3122 3121 3119 3119 3119 3118 3118 3118 3117 3116 3112 3110 3113 3115 3113 3112 3110 3109 3108 3107 3105 3103 3101 3099 3098 3098 3098 3098
3155 3154 3153 3153 3152 3151 3150 3150 3149 3148 3148 3147 3146 3146 3145 3144 3143 3142 3142 3141 3140 3140 3139 3138 3137 3136 3136 3135 3135 3134 3134 3133 3133 3132 3132 3132 3132 3131 3131 3131 3131 3130 3130 3130 3129 3128 3128 3127 3127 3126 3126 3125 3125 3124 3123 3122 3122 3122 3121 3120 3120 3119 3118 3116 3116 3116 3115 3115 3114 3113 3109 3107 3110 3112 3111 3109 3107 3105 3104 3103 3102 3100 3098 3096 3095 3095 3095 3095
3155 3154 3153 3153 3152 3151 3150 3150 3149 3148 3147 3147 3146 3145 3144 3144 3143 3142 3141 3140 3140 3139 3138 3137 3136 3136 3135 3134 3134 3133 3133 3132 3132 3132 3131 3131 3131 3130 3130 3130 3130 3129 3129 3128 3128 3127 3126 3126 3126 3125 3125 3124 3123 3122 3122 3121 3120 3120 3120 3119 3118 3118 3117 3115 3114 3114 3113 3112 3111 3109 3105 3104 3107 3109 3109 3108 3105 3101 3100 3099 3099 3098 3095 3094 3093 3093 3092 3091
3155 3154 3154 3153 3152 3151 3150 3149 3149 3148 3147 3146 3146 3145 3144 3143 3142 3142 3141 3140 3139 3138 3137 3136 3136 3135 3134 3134 3133 3132 3132 3131 3131 3131 3130 3130 3129 3129 3129 3129 3128 3128 3128 3127 3127 3126 3125 3125 3124 3123 3123 3122 3122 3121 3120 3119 3119 3119 3118 3117 3117 3116 3115 3114 3113 3112 3112 3109 3108 3107 3102 3101 3104 3105 3105 3105 3102 3098 3096 3095 3095 3094 3093 3092 3093 3092 3090 3089
3155 3155 3154 3153 3152 3151 3150 3149 3148 3147 3147 3146 3145 3145 3144 3143 3142 3141 3140 3139 3138 3137 3136 3135 3135 3134 3133 3133 3132 3131 3130 3130 3130 3129 3129 3128 3128 3128 3128 3127 3127 3127 3126 3126 3125 3124 3124 3123 3123 3122 3121 3121 3120 3119 3118 3118 3118 3118 3117 3116 3115 3114 3112 3113 3112 3110 3109 3106 3105 3104 3101 3100 3101 3101 3102 3101 3098 3095 3092 3091 3091 3091 3091 3091 3091 3090 3088 3087
3155 3155 3154 3153 3152 3151 3150 3149 3148 3147 3146 3146 3145 3144 3143 3142 3141 3140 3140 3138 3137 3136 3135 3134 3133 3132 3132 3132 3131 3130 3129 3128 3128 3128 3127 3127 3127 3126 3126 3126 3125 3125 3125 3124 3123 3123 3122 3121 3121 3120 3120 3119 3118 3118 3117 3117 3116 3116 3115 3114 3113 3111 3110 3110 3109 3107 3106 3103 3102 3102 3100 3098 3098 3098 3098 3097 3094 3092 3090 3089 3089 3089 3089 3089 3089 3089 3088 3086
3155 3155 3154 3153 3152 3151 3150 3149 3148 3147 3146 3145 3144 3143 3142 3141 3140 3139 3138 3137 3136 3135 3134 3132 3132 3131 3130 3130 3129 3129 3128 3127 3127 3127 3126 3125 3125 3125 3125 3124 3124 3124 3123 3122 3121 3121 3120 3119 3119 3118 3117 3117 3117 3116 3116 3116 3115 3115 3114 3112 3111 3110 3108 3107 3107 3105 3104 3101 3100 3100 3098 3096 3097 3096 3094 3092 3091 3089 3088 3087 3087 3087 3088 3088 3088 3088 3087 3086
3155 3155 3154 3153 3152 3151 3150 3149 3148 3147 3146 3145 3143 3142 3141 3140 3139 3138 3137 3136 3135 3134 3132 3131 3130 3130 3129 3128 3128 3127 3127 3126 3126 3126 3124 3124 3124 3123 3123 3123 3122 3122 3121 3121 3120 3119 3118 3117 3117 3116 3116 3116 3115 3115 3115 3115 3114 3113 3112 3110 3108 3108 3106 3104 3104 3103 3102 3100 3098 3098 3095 3094 3095 3093 3089 3088 3088 3087 3086 3086 3086 3086 3086 3086 3086 3086 3085 3085
3155 3155 3154 3153 3152 3151 3150 3149 3148 3146 3145 3144 3143 3142 3140 3139 3138 3137 3135 3134 3133 3132 3131 3130 3130 3129 3128 3128 3127 3126 3126 3125 3125 3124 3123 3123 3122 3122 3122 3121 3121 3120 3120 3119 3118 3117 3116 3115 3115 3115 3114 3114 3114 3114 3114 3113 3112 3111 3109 3108 3106 3106 3104 3102 3101 3101 3100 3099 3097 3096 3093 3092 3093 3089 3087 3086 3085 3085 3085 3085 3086 3085 3085 3085 3084 3084 3083 3083
3156 3155 3154 3153 3152 3151 3150 3148 3147 3146 3145 3144 3142 3141 3140 3139 3137 3136 3134 3133 3132 3131 3130 3130 3129 3129 3128 3127 3127 3126 3125 3124 3124 3123 3122 3122 3121 3121 3120 3120 3119 3119 3118 3117 3116 3115 3114 3114 3114 3113 3113 3112 3112 3112 3111 3110 3109 3108 3107 3106 3104 3104 3103 3101 3100 3099 3098 3097 3095 3093 3091 3090 3090 3087 3085 3085 3084 3084 3084 3085 3085 3084 3084 3083 3083 3082 3082 3082
3156 3155 3154 3153 3152 3151 3149 3148 3147 3145 3144 3143 3142 3141 3139 3138 3136 3135 3133 3132 3131 3130 3130 3129 3129 3128 3128 3127 3126 3126 3125 3124 3123 3122 3121 3121 3120 3120 3119 3118 3118 3117 3117 3116 3115 3114 3113 3112 3112 3112 3111 3111 3110 3110 3109 3107 3106 3105 3104 3103 3102 3101 3101 3100 3099 3097 3095 3094 3093 3093 3092 3090 3088 3088 3085 3084 3084 3083 3083 3084 3083 3083 3083 3083 3082 3082 3081 3080
3156 3155 3154 3153 3152 3150 3149 3148 3146 3145 3143 3142 3141 3140 3139 3137 3136 3134 3133 3131 3130 3130 3129 3129 3129 3128 3127 3127 3126 3125 3124 3123 3122 3121 3120 3119 3119 3118 3118 3117 3116 3116 3115 3114 3113 3112 3111 3111 3111 3110 3110 3109 3108 3108 3107 3105 3104 3103 3102 3102 3101 3100 3099 3098 3097 3095 3093 3092 3091 3092 3093 3089 3087 3088 3085 3082 3083 3082 3082 3083 3083 3083 3083 3082 3082 3081 3080 3080
3155 3154 3153 3152 3151 3150 3148 3147 3145 3144 3142 3141 3140 3139 3138 3137 3135 3134 3132 3130 3130 3130 3129 3129 3129 3128 3127 3126 3125 3124 3123 3122 3121 3120 3119 3118 3118 3117 3116 3116 3115 3114 3113 3113 3112 3111 3110 3110 3109 3108 3108 3107 3106 3105 3104 3103 3102 3101 3100 3100 3099 3098 3097 3096 3094 3093 3091 3090 3089 3090 3090 3088 3086 3086 3084 3081 3081 3081 3081 3082 3082 3082 3082 3081 3080 3080 3079 3079
3155 3154 3153 3152 3150 3149 3148 3146 3145 3143 3142 3140 3139 3138 3137 3136 3135 3133 3132 3131 3130 3130 3129 3129 3128 3128 3127 3126 3125 3124 3122 3121 3120 3119 3118 3117 3116 3116 3115 3114 3113 3113 3112 3111 3110 3109 3108 3108 3107 3107 3106 3105 3104 3103 3102 3101 3101 3100 3099 3098 3097 3096 3095 3093 3092 3091 3090 3088 3086 3087 3088 3087 3086 3084 3083 3082 3081 3081 3081 3082 3082 3081 3081 3080 3079 3079 3079 3078
3154 3153 3152 3151 3150 3149 3147 3145 3144 3142 3141 3140 3139 3137 3136 3135 3134 3133 3132 3132 3131 3130 3129 3129 3128 3127 3126 3125 3124 3123 3121 3120 3119 3118 3117 3116 3115 3114 3114 3113 3112 3111 3111 3109 3108 3107 3107 3106 3105 3105 3104 3104 3103 3102 3101 3100 3099 3098 3098 3097 3096 3094 3092 3091 3089 3088 3088 3087 3085 3085 3086 3086 3085 3084 3083 3082 3082 3081 3081 3081 3080 3080 3080 3079 3079 3078 3077 3077
3154 3153 3152 3150 3149 3148 3146 3145 3143 3142 3140 3139 3138 3137 3136 3135 3133 3132 3132 3131 3130 3130 3129 3128 3127 3126 3125 3124 3123 3121 3120 3119 3118 3117 3116 3115 3114 3113 3112 3111 3111 3110 3109 3108 3106 3106 3105 3105 3104 3103 3103 3102 3102 3101 3100 3099 3099 3097 3096 3094 3093 3092 3090 3088 3088 3087 3087 3086 3084 3084 3084 3085 3085 3084 3083 3083 3082 3081 3081 3080 3080 3079 3079 3078 3077 3077 3076 3074
3153 3152 3151 3150 3148 3147 3145 3144 3142 3141 3139 3138 3137 3136 3135 3134 3133 3132 3132 3131 3130 3129 3129 3128 3127 3125 3124 3122 3121 3120 3119 3118 3117 3116 3115 3114 3113 3112 3111 3110 3109 3108 3107 3106 3105 3105 3104 3103 3103 3102 3102 3101 3101 3100 3099 3098 3097 3096 3094 3093 3091 3089 3088 3087 3087 3087 3086 3085 3084 3084 3084 3085 3085 3084 3084 3083 3082 3081 3081 3080 3079 3079 3078 3077 3076 3075 3073 3072
3152 3151 3150 3149 3147 3146 3144 3143 3141 3140 3139 3137 3136 3135 3134 3133 3132 3132 3132 3131 3129 3128 3128 3127 3126 3124 3122 3121 3120 3119 3118 3118 3117 3116 3114 3113 3112 3111 3110 3109 3108 3107 3106 3105 3104 3104 3103 3102 3102 3101 3101 3100 3100 3099 3098 3097 3096 3095 3093 3092 3090 3089 3088 3087 3087 3086 3086 3084 3084 3085 3085 3085 3084 3084 3084 3083 3082 3081 3080 3080 3079 3078 3077 3076 3074 3073 3071 3068
3152 3151 3149 3148 3146 3145 3143 3142 3140 3139 3138 3136 3135 3134 3133 3133 3132 3132 3131 3131 3129 3128 3127 3126 3125 3123 3122 3120 3120 3119 3118 3117 3116 3115 3114 3112 3111 3110 3109 3108 3107 3107 3106 3105 3103 3102 3101 3101 3101 3100 3100 3099 3099 3098 3097 3096 3095 3093 3092 3091 3091 3091 3091 3090 3087 3086 3085 3084 3084 3084 3084 3084 3083 3083 3083 3083 3082 3081 3080 3079 3078 3076 3075 3074 3072 3070 3068 3065
3151 3150 3148 3147 3145 3144 3142 3141 3139 3138 3137 3136 3135 3134 3133 3132 3132 3131 3131 3130 3129 3128 3126 3125 3124 3122 3121 3120 3119 3118 3117 3116 3115 3114 3113 3112 3111 3110 3109 3108 3107 3107 3106 3104 3103 3102 3101 3100 3100 3100 3099 3098 3097 3096 3095 3095 3093 3092 3091 3091 3091 3091 3092 3090 3088 3086 3085 3084 3084 3083 3083 3082 3082 3083 3083 3083 3082 3081 3080 3078 3077 3075 3074 3072 3070 3068 3065 3063
3150 3149 3147 3146 3144 3143 3141 3140 3138 3137 3136 3135 3134 3133 3133 3132 3132 3131 3130 3129 3128 3127 3126 3124 3123 3121 3120 3119 3118 3117 3116 3115 3114 3113 3112 3111 3110 3109 3109 3108 3107 3106 3105 3104 3103 3102 3101 3100 3100 3099 3099 3097 3096 3095 3095 3093 3092 3091 3091 3090 3090 3090 3090 3088 3087 3086 3085 3084 3083 3082 3082 3081 3081 3082 3083 3083 3082 3080 3079 3077 3075 3074 3072 3070 3068 3065 3062 3060
3149 3148 3146 3145 3143 3142 3140 3139 3138 3136 3135 3135 3134 3133 3132 3132 3131 3130 3129 3128 3127 3125 3124 3123 3122 3120 3120 3119 3118 3117 3116 3115 3114 3113 3111 3110 3109 3109 3108 3108 3107 3106 3105 3104 3103 3102 3101 3099 3099 3098 3097 3096 3095 3095 3094 3092 3091 3091 3090 3090 3089 3089 3088 3087 3086 3085 3085 3085 3082 3080 3081 3081 3081 3082 3082 3082 3081 3079 3077 3075 3073 3072 3069 3067 3064 3062 3059 3057
3149 3147 3145 3144 3142 3141 3139 3138 3137 3136 3135 3134 3133 3132 3132 3131 3131 3130 3129 3127 3126 3124 3123 3122 3121 3120 3119 3118 3117 3117 3116 3114 3113 3112 3111 3110 3109 3109 3108 3107 3106 3105 3105 3104 3103 3102 3100 3098 3097 3097 3096 3095 3094 3093 3092 3091 3090 3090 3089 3089 3088 3087 3087 3087 3086 3085 3085 3086 3082 3080 3081 3082 3081 3081 3081 3081 3080 3077 3074 3073 3071 3069 3067 3064 3062 3059 3057 3055
3148 3146 3144 3143 3141 3140 3139 3137 3136 3135 3134 3133 3133 3132 3131 3131 3130 3129 3128 3127 3125 3124 3122 3121 3120 3119 3118 3117 3116 3116 3115 3114 3113 3111 3110 3109 3109 3108 3107 3107 3106 3105 3104 3103 3103 3102 3100 3096 3095 3095 3095 3094 3093 3092 3090 3090 3089 3089 3088 3088 3087 3086 3086 3086 3086 3086 3086 3086 3083 3080 3080 3081 3081 3081 3081 3079 3077 3075 3073 3071 3069 3066 3064 3062 3059 3057 3055 3052
3147 3145 3143 3142 3140 3139 3138 3137 3135 3134 3134 3133 3132 3131 3131 3130 3129 3128 3127 3126 3125 3123 3122 3121 3120 3119 3118 3117 3116 3115 3114 3113 3112 3111 3110 3109 3108 3108 3107 3106 3105 3105 3104 3102 3101 3101 3100 3097 3094 3093 3093 3093 3091 3090 3089 3089 3088 3088 3087 3087 3086 3086 3086 3086 3086 3086 3085 3085 3084 3080 3080 3082 3083 3082 3080 3077 3075 3073 3071 3069 3066 3064 3062 3060 3057 3054 3051 3048
3145 3144 3142 3141 3140 3138 3137 3136 3135 3134 3133 3133 3132 3131 3130 3129 3128 3127 3126 3125 3124 3123 3121 3120 3119 3118 3117 3116 3115 3114 3113 3112 3111 3110 3109 3109 3108 3107 3106 3106 3105 3104 3103 3101 3100 3099 3099 3097 3094 3092 3092 3092 3090 3089 3089 3088 3088 3087 3086 3086 3086 3086 3085 3085 3085 3084 3084 3084 3083 3082 3082 3083 3083 3081 3078 3075 3073 3071 3069 3067 3065 3062 3060 3057 3055 3052 3048 3045
3144 3143 3141 3140 3139 3138 3137 3135 3135 3134 3133 3132 3131 3130 3130 3129 3128 3127 3125 3124 3123 3122 3121 3120 3119 3118 3116 3116 3114 3113 3113 3112 3110 3110 3109 3108 3108 3107 3106 3105 3104 3103 3102 3100 3099 3098 3097 3096 3093 3091 3090 3090 3089 3088 3088 3087 3087 3086 3086 3086 3085 3085 3084 3084 3084 3083 3082 3082 3082 3082 3082 3082 3081 3078 3076 3073 3071 3069 3066 3064 3062 3059 3057 3054 3051 3048 3044 3041
3143 3142 3141 3140 3139 3137 3136 3135 3135 3134 3133 3132 3131 3130 3129 3128 3127 3126 3125 3124 3122 3121 3120 3119 3118 3117 3116 3115 3114 3113 3112 3111 3110 3109 3109 3108 3107 3106 3105 3104 3103 3101 3100 3099 3098 3097 3096 3094 3092 3090 3090 3089 3088 3087 3087 3087 3086 3086 3085 3085 3084 3084 3083 3083 3083 3081 3081 3081 3080 3080 3081 3080 3078 3074 3072 3071 3068 3065 3062 3060 3058 3055 3053 3050 3047 3044 3041 3038
3143 3142 3140 3139 3138 3137 3136 3135 3134 3133 3132 3131 3130 3129 3128 3127 3126 3125 3124 3123 3122 3121 3120 3119 3118 3117 3115 3114 3113 3112 3111 3110 3109 3109 3108 3107 3107 3106 3104 3103 3101 3100 3099 3097 3096 3095 3094 3093 3091 3089 3089 3088 3087 3086 3086 3086 3085 3085 3084 3083 3083 3082 3082 3082 3081 3080 3080 3079 3079 3079 3078 3077 3075 3071 3069 3068 3066 3063 3060 3057 3054 3052 3049 3047 3044 3040 3036 3033
3142 3141 3140 3139 3137 3136 3135 3134 3134 3132 3131 3130 3129 3128 3128 3127 3126 3125 3123 3122 3121 3120 3119 3118 3117 3116 3115 3114 3113 3112 3111 3110 3109 3108 3108 3107 3106 3104 3103 3102 3100 3099 3098 3096 3095 3094 3094 3092 3091 3089 3088 3088 3087 3086 3085 3085 3084 3083 3082 3082 3081 3081 3080 3080 3079 3079 3079 3078 3078 3078 3076 3074 3072 3069 3066 3065 3063 3060 3058 3056 3053 3050 3047 3044 3040 3035 3031 3027
3142 3140 3139 3138 3137 3136 3135 3134 3133 3132 3131 3130 3129 3128 3127 3126 3125 3124 3123 3122 3121 3120 3119 3118 3117 3116 3115 3114 3113 3112 3110 3110 3109 3108 3107 3106 3105 3103 3102 3101 3099 3098 3096 3095 3094 3094 3093 3092 3091 3090 3090 3089 3088 3087 3085 3084 3084 3083 3081 3080 3080 3079 3078 3078 3077 3077 3077 3077 3076 3075 3073 3070 3069 3067 3064 3063 3061 3058 3056 3053 3051 3048 3045 3040 3034 3030 3025 3021
3141 3140 3139 3138 3136 3135 3134 3133 3132 3131 3130 3129 3128 3128 3127 3126 3124 3123 3122 3121 3120 3119 3118 3117 3116 3115 3115 3114 3112 3111 3110 3109 3108 3107 3106 3105 3104 3102 3101 3099 3098 3096 3095 3094 3093 3093 3091 3091 3090 3089 3089 3089 3087 3086 3085 3084 3083 3082 3080 3079 3078 3077 3077 3076 3076 3076 3076 3075 3074 3073 3071 3068 3065 3064 3062 3060 3058 3054 3051 3048 3046 3043 3039 3034 3029 3025 3021 3017
3140 3139 3138 3137 3136 3135 3134 3133 3132 3131 3130 3129 3128 3127 3126 3125 3124 3123 3122 3121 3120 3119 3118 3117 3116 3115 3114 3113 3112 3111 3110 3109 3108 3107 3105 3104 3103 3101 3100 3098 3097 3095 3094 3093 3092 3091 3090 3089 3089 3088 3088 3087 3086 3085 3084 3083 3081 3080 3079 3078 3077 3076 3076 3075 3075 3076 3075 3074 3072 3071 3070 3067 3063 3061 3059 3056 3053 3050 3047 3044 3041 3038 3034 3028 3024 3022 3018 3013
3139 3138 3137 3136 3136 3135 3134 3133 3132 3130 3129 3129 3128 3127 3126 3125 3124 3123 3122 3121 3120 3119 3118 3117 3116 3115 3114 3113 3112 3111 3110 3109 3107 3106 3105 3103 3101 3100 3099 3097 3095 3094 3093 3092 3091 3090 3089 3088 3087 3087 3086 3086 3084 3083 3083 3081 3080 3079 3078 3077 3076 3076 3075 3075 3075 3074 3074 3073 3071 3070 3069 3066 3062 3059 3057 3054 3051 3047 3043 3041 3039 3035 3030 3025 3021 3017 3012 3008
3139 3138 3137 3136 3135 3134 3133 3132 3131 3130 3129 3128 3128 3127 3126 3125 3124 3123 3121 3120 3120 3119 3118 3117 3116 3115 3114 3113 3112 3110 3109 3108 3106 3105 3103 3102 3100 3098 3097 3095 3094 3093 3092 3091 3090 3089 3088 3087 3086 3085 3085 3084 3083 3082 3081 3080 3079 3078 3077 3076 3076 3075 3075 3075 3074 3073 3073 3072 3070 3068 3066 3064 3061 3058 3055 3052 3049 3045 3041 3039 3036 3032 3026 3021 3017 3012 3007 3002
3139 3138 3137 3136 3135 3134 3133 3132 3131 3130 3129 3129 3128 3126 3125 3124 3123 3122 3121 3120 3119 3119 3118 3117 3116 3115 3114 3112 3111 3110 3109 3107 3105 3103 3102 3100 3099 3097 3095 3094 3093 3092 3091 3090 3089 3088 3087 3086 3086 3084 3083 3083 3082 3081 3080 3079 3078 3077 3076 3075 3075 3075 3074 3073 3072 3071 3070 3069 3067 3065 3063 3060 3057 3055 3051 3048 3045 3041 3038 3035 3033 3027 3021 3016 3012 3006 3001 2996
3139 3138 3137 3136 3135 3134 3133 3132 3131 3130 3129 3128 3127 3126 3125 3124 3123 3122 3121 3120 3119 3119 3118 3117 3116 3115 3114 3112 3111 3110 3108 3106 3104 3102 3101 3099 3098 3096 3095 3093 3092 3091 3090 3089 3089 3088 3087 3086 3085 3083 3082 3082 3081 3080 3079 3078 3077 3076 3075 3074 3074 3073 3073 3073 3071 3070 3068 3066 3063 3061 3058 3055 3051 3048 3046 3044 3042 3038 3034 3031 3027 3021 3015 3010 3005 3001 2997 2992
3138 3137 3137 3136 3135 3134 3133 3132 3131 3130 3129 3128 3127 3126 3125 3124 3123 3122 3121 3120 3120 3119 3118 3117 3116 3115 3113 3112 3111 3109 3107 3105 3103 3102 3100 3098 3097 3095 3094 3093 3092 3091 3090 3089 3088 3087 3086 3085 3083 3082 3081 3081 3081 3079 3078 3076 3075 3075 3075 3074 3073 3073 3072 3072 3071 3069 3067 3064 3061 3057 3054 3051 3048 3045 3042 3039 3037 3033 3028 3025 3021 3015 3010 3007 3002 2998 2993 2988